FW8699 Weather Reports


time (UTC)temp
F
wind
direction
speed
knots
gust
knots
rain 1hr
in
rain 24hr
in
rain mn
in
humidity
%
barometer
mb
20260505140117 67 218 3.5 7.8 0.00 0.00 0.00 69 1017.4
20260505124604 61 246 1.7 4.3 0.00 0.00 0.00 76 1017.7
20260505123058 61 239 1.7 6.1 0.00 0.00 0.00 78 1017.5
20260505121600 59 270 0.9 5.2 0.00 0.00 0.00 80 1017.5
20260505120058 57 222 1.7 3.5 0.00 0.00 0.00 82 1017.6
20260505114553 56 248 0.9 6.1 0.00 0.00 0.00 84 1017.3
20260505113056 55 0 0.0 4.3 0.00 0.00 0.00 85 1017.2
20260505111555 54 232 0.0 2.6 0.00 0.00 0.00 86 1016.9
20260505110106 54 232 0.0 1.7 0.00 0.00 0.00 86 1016.8
20260505101554 53 0 0.0 0.0 0.00 0.00 0.00 87 1016.2
20260505100057 53 0 0.0 0.0 0.00 0.00 0.00 86 1016.3
20260505094553 53 0 0.0 0.0 0.00 0.00 0.00 86 1016.2
20260505093057 54 0 0.0 0.0 0.00 0.00 0.00 84 1016.3
20260505091609 54 0 0.0 0.0 0.00 0.00 0.00 83 1016.2
20260505090058 55 0 0.0 0.0 0.00 0.00 0.00 81 1016.0
20260505084554 55 0 0.0 0.0 0.00 0.00 0.00 80 1015.8
20260505083056 56 0 0.0 0.0 0.00 0.00 0.00 79 1015.6
20260505081556 56 0 0.0 2.6 0.00 0.00 0.00 79 1015.7
20260505080103 56 0 0.0 0.9 0.00 0.00 0.00 78 1015.6
20260505074556 57 0 0.0 1.7 0.00 0.00 0.00 77 1015.6
20260505073058 57 0 0.0 0.0 0.00 0.00 0.00 76 1015.7
20260505071556 58 0 0.0 1.7 0.00 0.00 0.00 75 1015.6
20260505070055 58 0 0.0 1.7 0.00 0.00 0.00 74 1015.4
20260505064555 59 0 0.9 1.7 0.00 0.00 0.00 74 1015.5
20260505063112 59 235 0.0 2.6 0.00 0.00 0.00 72 1015.4
20260505061556 59 0 0.0 2.6 0.00 0.00 0.00 72 1015.4
20260505060058 60 0 0.0 0.9 0.00 0.00 0.00 72 1015.5
20260505054609 60 244 0.9 3.5 0.00 0.00 0.00 72 1015.5
20260505053101 60 261 0.9 2.6 0.00 0.00 0.00 71 1015.6
20260505051558 61 0 0.0 2.6 0.00 0.00 0.00 71 1015.9
20260505050111 61 228 0.9 4.3 0.00 0.00 0.00 70 1015.7
20260505041606 62 237 0.9 4.3 0.00 0.00 0.00 68 1015.7
20260505040101 63 232 0.9 7.0 0.00 0.00 0.00 67 1015.7
20260505034600 63 223 2.6 7.0 0.00 0.00 0.00 66 1015.7
20260505033109 64 208 3.5 7.0 0.00 0.00 0.00 65 1015.6
20260505031606 64 223 1.7 8.7 0.00 0.00 0.00 65 1015.7
20260505030059 65 217 2.6 7.0 0.00 0.00 0.00 64 1015.6
20260505024606 65 208 1.7 8.7 0.00 0.00 0.00 63 1015.6
20260505023100 66 219 1.7 8.7 0.00 0.00 0.00 63 1015.6
20260505021608 66 237 2.6 8.7 0.00 0.00 0.00 62 1015.5
20260505020057 67 240 0.9 7.8 0.00 0.00 0.00 62 1015.4
20260505014608 68 186 2.6 11.3 0.00 0.00 0.00 61 1015.3
20260505013058 68 246 0.9 11.3 0.00 0.00 0.00 60 1015.0
20260505011606 69 196 1.7 7.0 0.00 0.00 0.00 57 1014.8
20260505010057 70 235 1.7 6.1 0.00 0.00 0.00 52 1014.6
20260505004555 71 249 0.9 2.6 0.00 0.00 0.00 47 1014.3
20260505003053 71 0 0.9 2.6 0.00 0.00 0.00 45 1014.1
20260505001557 72 0 0.0 3.5 0.00 0.00 0.00 43 1014.1
20260505000115 73 0 0.9 2.6 0.00 0.00 0.00 42 1013.9
20260504234558 74 230 1.7 4.3 0.00 0.00 0.00 41 1013.8
20260504233109 75 213 2.6 7.8 0.00 0.00 0.00 39 1013.5
20260504231607 76 215 1.7 7.0 0.00 0.00 0.00 39 1013.3
20260504230059 76 226 1.7 6.1 0.00 0.00 0.00 37 1013.3
20260504224604 77 204 1.7 8.7 0.00 0.00 0.00 37 1013.3
20260504223127 78 234 0.9 7.0 0.00 0.00 0.00 36 1013.3
20260504221556 78 216 3.5 7.8 0.00 0.00 0.00 35 1013.4
20260504220057 79 221 4.3 9.6 0.00 0.00 0.00 35 1013.3
20260504214555 80 227 0.9 8.7 0.00 0.00 0.00 33 1013.2
20260504213102 81 211 1.7 5.2 0.00 0.00 0.00 33 1013.2
20260504211553 80 220 2.6 7.0 0.00 0.00 0.00 32 1013.3
20260504210101 80 212 3.5 10.4 0.00 0.00 0.00 31 1013.3
20260504204557 80 221 1.7 7.0 0.00 0.00 0.00 32 1013.4
20260504203108 80 248 3.5 7.8 0.00 0.00 0.00 30 1013.6
20260504201559 80 248 2.6 7.0 0.00 0.00 0.00 30 1013.7
20260504200111 80 257 2.6 7.8 0.00 0.00 0.00 30 1013.9
20260504194554 80 248 2.6 7.8 0.00 0.00 0.00 28 1013.9
20260504193058 80 220 1.7 7.0 0.00 0.00 0.00 29 1014.0
20260504191558 79 252 3.5 8.7 0.00 0.00 0.00 29 1014.3
20260504190053 79 268 2.6 7.0 0.00 0.00 0.00 30 1014.7
20260504184558 79 257 2.6 6.1 0.00 0.00 0.00 29 1014.6
20260504183053 78 211 1.7 7.0 0.00 0.00 0.00 34 1014.8
20260504181600 77 205 3.5 8.7 0.00 0.00 0.00 33 1014.9
20260504180054 77 260 2.6 7.8 0.00 0.00 0.00 34 1014.9
20260504174604 76 254 3.5 12.2 0.00 0.00 0.00 34 1015.2
20260504173052 76 212 2.6 7.0 0.00 0.00 0.00 39 1015.7
20260504171555 75 291 2.6 7.0 0.00 0.00 0.00 39 1015.7
20260504160104 71 216 2.6 7.8 0.00 0.00 0.00 48 1016.8